GW3962 Weather Reports


Display with metric or nautical units.
time (UTC)temp
F
wind
direction
speed
MPH
gust
MPH
rain 1hr
in
rain 24hr
in
rain mn
in
humidity
%
barometer
mb
20260510022043 81 193 4.0 5.0 0.00 0.01 0.01 69 1010.5
20260510021535 80 221 2.0 3.0 0.00 0.01 0.01 69 1010.3
20260510021032 81 241 2.0 2.0 0.00 0.01 0.01 69 1010.4
20260510020526 81 232 2.0 3.0 0.00 0.01 0.01 69 1010.3
20260510020022 81 269 0.0 1.0 0.00 0.01 0.01 69 1010.2
20260510015518 81 260 2.0 2.0 0.00 0.01 0.01 68 1010.0
20260510015014 81 169 2.0 2.0 0.00 0.01 0.01 68 1009.9
20260510014511 82 177 3.0 3.0 0.00 0.01 0.01 67 1010.1
20260510014008 82 193 4.0 5.0 0.00 0.01 0.01 66 1009.9
20260510013502 82 185 3.0 5.0 0.00 0.01 0.01 66 1010.0
20260510012958 82 149 5.0 7.0 0.00 0.01 0.01 65 1009.9
20260510012453 83 116 5.0 6.0 0.00 0.01 0.01 64 1010.2
20260510011949 83 122 3.0 5.0 0.00 0.01 0.01 63 1009.9
20260510011444 83 164 2.0 3.0 0.00 0.01 0.01 62 1009.6
20260510010940 83 106 4.0 5.0 0.00 0.01 0.01 61 1009.9
20260510010437 84 132 7.0 8.0 0.00 0.01 0.01 60 1009.9
20260510005934 84 195 4.0 5.0 0.00 0.01 0.01 59 1009.6
20260510005430 84 178 3.0 5.0 0.00 0.01 0.01 58 1009.6
20260510004927 84 189 4.0 5.0 0.00 0.01 0.01 58 1009.8
20260510004425 85 181 5.0 7.0 0.00 0.01 0.01 57 1009.6
20260510003923 85 161 3.0 5.0 0.00 0.01 0.01 57 1009.8
20260510003419 85 200 3.0 3.0 0.00 0.01 0.01 57 1009.2
20260510002918 85 250 2.0 3.0 0.00 0.01 0.01 56 1009.3
20260510002416 86 176 4.0 5.0 0.00 0.01 0.01 55 1009.4
20260510001912 86 111 4.0 5.0 0.00 0.01 0.01 55 1009.4
20260510001410 86 134 5.0 6.0 0.00 0.01 0.01 55 1009.3
20260510000907 86 96 4.0 6.0 0.00 0.01 0.01 54 1009.3
20260510000404 86 134 6.0 8.0 0.00 0.01 0.01 53 1009.4
20260509235900 86 151 5.0 7.0 0.00 0.01 0.01 52 1009.3
20260509235357 87 154 3.0 3.0 0.00 0.01 0.01 52 1009.1
20260509234852 87 186 4.0 6.0 0.00 0.01 0.01 51 1009.2
20260509234350 87 190 3.0 6.0 0.00 0.01 0.01 51 1009.2
20260509233848 87 149 6.0 8.0 0.00 0.01 0.01 51 1009.0
20260509233345 87 136 5.0 6.0 0.00 0.01 0.01 50 1009.2
20260509232841 88 122 3.0 5.0 0.00 0.01 0.01 49 1009.3
20260509232339 87 236 2.0 3.0 0.00 0.01 0.01 50 1009.2
20260509231834 87 71 5.0 7.0 0.00 0.01 0.01 49 1009.0
20260509231332 88 156 3.0 3.0 0.00 0.01 0.01 48 1008.9
20260509230829 89 81 6.0 8.0 0.00 0.01 0.01 47 1008.9
20260509230326 89 104 4.0 6.0 0.00 0.01 0.01 47 1009.0
20260509225821 89 194 6.0 7.0 0.00 0.01 0.01 46 1008.9
20260509225319 89 306 2.0 3.0 0.00 0.01 0.01 47 1008.8
20260509224814 88 324 1.0 2.0 0.00 0.01 0.01 48 1009.1
20260509224311 89 194 5.0 5.0 0.00 0.01 0.01 47 1009.1
20260509223807 91 297 0.0 1.0 0.00 0.01 0.01 51 1009.2
20260509223305 92 312 2.0 3.0 0.00 0.01 0.01 47 1009.3
20260509222801 91 309 3.0 3.0 0.00 0.01 0.01 48 1008.9
20260509222257 89 311 1.0 1.0 0.00 0.01 0.01 51 1009.0
20260509221753 89 149 2.0 2.0 0.00 0.01 0.01 52 1009.0
20260509221250 91 113 3.0 3.0 0.00 0.01 0.01 50 1008.9
20260509220745 92 281 1.0 1.0 0.00 0.01 0.01 48 1009.1
20260509220242 91 329 0.0 1.0 0.00 0.01 0.01 49 1009.0
20260509215737 93 306 1.0 1.0 0.00 0.01 0.01 48 1009.0
20260509215234 92 6 3.0 3.0 0.00 0.01 0.01 49 1009.1
20260509214731 90 66 3.0 5.0 0.00 0.01 0.01 51 1009.0
20260509214228 90 267 2.0 2.0 0.00 0.01 0.01 51 1009.3
20260509213725 89 170 4.0 5.0 0.00 0.01 0.01 51 1009.3
20260509213221 89 252 4.0 5.0 0.00 0.01 0.01 52 1009.3
20260509212718 90 8 3.0 6.0 0.00 0.01 0.01 53 1009.3
20260509212215 90 292 1.0 1.0 0.00 0.01 0.01 52 1009.3
20260509211711 89 21 2.0 5.0 0.00 0.01 0.01 53 1009.4
20260509211207 88 120 3.0 5.0 0.00 0.01 0.01 53 1009.4
20260509210703 89 319 1.0 1.0 0.00 0.01 0.01 51 1009.6
20260509210156 88 55 5.0 7.0 0.00 0.01 0.01 51 1009.9
20260509205651 89 129 2.0 3.0 0.00 0.01 0.01 52 1009.8
20260509205150 89 103 5.0 7.0 0.00 0.01 0.01 52 1009.9
20260509204646 88 316 1.0 3.0 0.00 0.01 0.01 54 1010.1
20260509204143 89 107 1.0 2.0 0.00 0.01 0.01 56 1010.0
20260509203638 89 22 6.0 8.0 0.00 0.01 0.01 54 1010.0
20260509203132 87 288 5.0 8.0 0.00 0.01 0.01 54 1010.0
20260509202631 87 162 2.0 6.0 0.00 0.01 0.01 49 1010.3
20260509202127 86 334 4.0 7.0 0.00 0.01 0.01 51 1010.3
20260509201622 86 94 6.0 9.0 0.00 0.01 0.01 52 1010.8
20260509201120 89 114 10.0 14.0 0.00 0.01 0.01 55 1011.0
20260509200615 89 69 3.0 3.0 0.00 0.01 0.01 57 1010.7
20260509200111 87 315 2.0 3.0 0.00 0.01 0.01 62 1010.7
20260509195607 87 79 6.0 10.0 0.00 0.01 0.01 62 1010.6
20260509195102 87 7 4.0 6.0 0.00 0.01 0.01 61 1010.6
20260509194601 88 22 3.0 3.0 0.00 0.01 0.01 60 1010.4
20260509194059 89 301 1.0 1.0 0.00 0.01 0.01 55 1010.5
20260509193554 90 304 1.0 1.0 0.00 0.01 0.01 53 1010.4
20260509193051 89 299 1.0 1.0 0.00 0.01 0.01 55 1010.5
20260509192548 89 334 1.0 1.0 0.00 0.01 0.01 56 1010.6
20260509192042 88 314 1.0 1.0 0.00 0.01 0.01 58 1010.6
20260509191537 88 316 1.0 1.0 0.00 0.01 0.01 56 1010.8
20260509191033 88 27 4.0 6.0 0.00 0.01 0.01 58 1010.8
20260509190530 87 316 1.0 2.0 0.00 0.01 0.01 59 1010.8
20260509190029 88 309 0.0 1.0 0.00 0.01 0.01 56 1010.7
20260509185526 86 327 1.0 2.0 0.00 0.01 0.01 59 1011.1
20260509185021 85 302 5.0 7.0 0.00 0.01 0.01 62 1011.0
20260509184520 85 273 3.0 5.0 0.00 0.01 0.01 61 1011.2
20260509184016 86 297 1.0 1.0 0.00 0.01 0.01 61 1011.2
20260509183511 86 305 1.0 1.0 0.00 0.01 0.01 61 1011.2
20260509183007 86 312 2.0 2.0 0.00 0.01 0.01 62 1011.2
20260509182504 85 303 1.0 1.0 0.00 0.01 0.01 65 1011.6
20260509182001 84 309 3.0 5.0 0.00 0.01 0.01 63 1011.5
20260509181459 84 304 2.0 2.0 0.00 0.01 0.01 65 1011.5
20260509180956 84 297 1.0 1.0 0.00 0.01 0.01 65 1011.4
20260509180451 84 319 3.0 5.0 0.00 0.01 0.01 65 1011.8
20260509175949 84 299 3.0 3.0 0.00 0.01 0.01 66 1012.0
20260509175445 84 228 4.0 5.0 0.00 0.01 0.01 68 1011.7
20260509174942 83 279 2.0 2.0 0.00 0.01 0.01 70 1011.6
20260509174438 82 299 2.0 3.0 0.00 0.01 0.01 71 1011.6
20260509173933 81 305 2.0 3.0 0.00 0.01 0.01 71 1011.7
20260509173432 81 281 3.0 3.0 0.00 0.01 0.01 69 1012.0
20260509172929 81 279 2.0 3.0 0.00 0.01 0.01 70 1012.0
20260509172426 82 285 2.0 3.0 0.00 0.01 0.01 71 1012.2
20260509171922 83 248 3.0 3.0 0.00 0.01 0.01 69 1012.4
20260509171419 82 282 5.0 6.0 0.00 0.01 0.01 73 1012.2
20260509170915 82 244 2.0 3.0 0.00 0.01 0.01 73 1012.3
20260509170411 81 268 3.0 3.0 0.00 0.01 0.01 75 1012.3
20260509165907 81 213 7.0 8.0 0.00 0.01 0.01 76 1012.4
20260509165401 81 251 3.0 5.0 0.00 0.01 0.01 78 1012.0
20260509164857 79 232 3.0 5.0 0.00 0.01 0.01 80 1012.5
20260509164353 80 226 6.0 6.0 0.00 0.01 0.01 79 1012.5
20260509163849 79 302 5.0 7.0 0.00 0.01 0.01 82 1012.3
20260509163346 78 269 4.0 5.0 0.00 0.01 0.01 83 1012.5
20260509162845 77 240 10.0 13.0 0.00 0.01 0.01 84 1012.3
20260509162344 77 185 5.0 7.0 0.00 0.01 0.01 86 1012.4
20260509161840 77 249 4.0 5.0 0.00 0.01 0.01 86 1012.4
20260509161336 76 149 4.0 6.0 0.00 0.01 0.01 88 1012.2
20260509160832 76 227 11.0 13.0 0.00 0.01 0.01 88 1012.1
20260509160328 75 214 9.0 10.0 0.00 0.01 0.01 89 1012.4
20260509155823 75 218 7.0 8.0 0.00 0.01 0.01 91 1012.2
20260509155320 75 205 6.0 7.0 0.00 0.01 0.01 90 1012.5
20260509154816 75 226 7.0 8.0 0.00 0.01 0.01 90 1012.2
20260509154313 75 241 7.0 10.0 0.00 0.01 0.01 90 1012.4
20260509153810 75 210 7.0 8.0 0.00 0.01 0.01 89 1012.3
20260509153306 76 212 12.0 14.0 0.00 0.01 0.01 88 1012.3
20260509152803 76 241 4.0 5.0 0.00 0.01 0.01 90 1012.0
20260509152259 76 205 4.0 6.0 0.00 0.01 0.01 89 1011.9
20260509151756 77 239 9.0 10.0 0.00 0.01 0.01 88 1012.1
20260509151253 77 232 4.0 6.0 0.00 0.01 0.01 87 1011.8
20260509150752 78 287 6.0 8.0 0.00 0.01 0.01 86 1011.6
20260509150249 78 278 6.0 8.0 0.00 0.01 0.01 85 1011.7
20260509145746 77 272 4.0 5.0 0.00 0.01 0.01 85 1011.5
20260509145245 78 281 3.0 5.0 0.00 0.01 0.01 86 1011.5
20260509144742 77 256 5.0 6.0 0.00 0.01 0.01 86 1011.7
20260509144239 77 215 4.0 6.0 0.00 0.01 0.01 87 1011.9
20260509143736 77 282 3.0 3.0 0.00 0.01 0.01 87 1011.7
20260509143234 77 271 3.0 3.0 0.00 0.01 0.01 88 1011.6
20260509142729 76 297 3.0 3.0 0.00 0.01 0.01 88 1011.4
20260509142226 76 205 4.0 5.0 0.00 0.01 0.01 88 1011.5
20260509141722 76 251 3.0 3.0 0.00 0.01 0.01 89 1011.5
20260509141219 75 268 1.0 2.0 0.00 0.01 0.01 91 1011.4
20260509140715 74 241 3.0 3.0 0.00 0.01 0.01 92 1011.3
20260509140213 74 249 5.0 7.0 0.00 0.01 0.01 92 1011.0
20260509135710 74 217 5.0 6.0 0.00 0.01 0.01 92 1010.8
20260509135208 74 241 4.0 5.0 0.00 0.01 0.01 93 1010.9
20260509134704 73 222 7.0 8.0 0.00 0.01 0.01 93 1011.1
20260509134202 73 210 9.0 10.0 0.00 0.01 0.01 94 1010.9
20260509133659 72 248 5.0 6.0 0.00 0.01 0.01 95 1010.9
20260509133156 72 229 3.0 3.0 0.00 0.01 0.01 96 1011.0
20260509132654 72 240 6.0 7.0 0.00 0.01 0.01 96 1011.2
20260509132153 71 241 4.0 6.0 0.00 0.01 0.01 97 1011.1
20260509131648 71 231 10.0 10.0 0.00 0.01 0.01 97 1011.1
20260509131145 71 231 5.0 6.0 0.00 0.01 0.01 97 1011.3
20260509130641 71 225 5.0 6.0 0.00 0.01 0.01 97 1010.8
20260509130138 71 199 8.0 9.0 0.00 0.01 0.01 97 1011.0
20260509125634 71 224 5.0 6.0 0.00 0.01 0.01 97 1011.3
20260509125131 71 281 2.0 2.0 0.00 0.01 0.01 97 1011.3
20260509124627 71 296 1.0 1.0 0.00 0.01 0.01 97 1011.6
20260509124125 71 280 1.0 2.0 0.00 0.01 0.01 97 1011.5
20260509123623 71 316 1.0 1.0 0.00 0.01 0.01 97 1011.5
20260509123119 70 303 0.0 1.0 0.00 0.01 0.01 97 1011.6
20260509122615 70 318 2.0 2.0 0.00 0.01 0.01 97 1011.5
20260509122113 70 326 3.0 3.0 0.00 0.01 0.01 97 1011.5
20260509121609 70 325 0.0 0.0 0.00 0.01 0.01 97 1011.3
20260509121107 70 324 0.0 0.0 0.00 0.01 0.01 97 1011.5
20260509120604 70 322 0.0 0.0 0.00 0.01 0.01 97 1011.5
20260509115559 70 36 1.0 2.0 0.00 0.01 0.01 97 1011.8
20260509115057 70 346 0.0 0.0 0.00 0.01 0.01 97 1011.7
20260509114555 70 36 3.0 3.0 0.00 0.01 0.01 97 1012.0
20260509114054 70 317 0.0 0.0 0.00 0.01 0.01 97 1011.9
20260509113551 70 27 2.0 2.0 0.00 0.01 0.01 97 1011.9
20260509113049 70 292 1.0 2.0 0.00 0.01 0.01 97 1012.1
20260509112545 70 286 1.0 2.0 0.00 0.01 0.01 97 1012.1
20260509112042 70 302 1.0 1.0 0.00 0.01 0.01 97 1012.1
20260509111539 70 324 0.0 0.0 0.00 0.01 0.01 97 1012.2
20260509111036 70 14 0.0 1.0 0.00 0.01 0.01 97 1012.5
20260509110533 70 325 0.0 0.0 0.00 0.01 0.01 97 1012.7
20260509110030 70 335 1.0 1.0 0.00 0.01 0.01 97 1013.0
20260509105529 70 30 2.0 5.0 0.00 0.01 0.01 97 1012.6
20260509105026 70 30 1.0 1.0 0.00 0.01 0.01 96 1012.4
20260509104523 71 38 2.0 5.0 0.00 0.01 0.01 96 1012.4
20260509104020 71 14 3.0 3.0 0.00 0.01 0.01 96 1012.9
20260509103517 71 337 1.0 1.0 0.07 0.01 0.01 96 1012.7
20260509103015 71 332 3.0 3.0 0.07 0.01 0.01 96 1012.9
20260509102512 71 34 1.0 3.0 0.00 0.00 0.00 96 1012.9
20260509102009 71 323 1.0 1.0 0.00 0.00 0.00 96 1012.9
20260509101505 71 9 2.0 3.0 0.00 0.00 0.00 96 1012.5
20260509101002 71 332 0.0 0.0 0.00 0.00 0.00 96 1012.4
20260509100459 71 342 1.0 1.0 0.00 0.00 0.00 96 1012.2
20260509095956 71 339 1.0 1.0 0.00 0.00 0.00 96 1012.0
20260509095453 71 46 2.0 3.0 0.00 0.00 0.00 96 1011.9
20260509094950 71 22 2.0 2.0 0.00 0.00 0.00 96 1011.9
20260509094447 71 16 1.0 1.0 0.00 0.00 0.00 96 1011.5
20260509093944 71 0 1.0 1.0 0.00 0.00 0.00 96 1011.3
20260509093442 71 356 1.0 2.0 0.00 0.00 0.00 96 1011.2
20260509092939 71 28 2.0 2.0 0.00 0.00 0.00 96 1011.0
20260509092437 71 343 0.0 1.0 0.00 0.00 0.00 96 1011.3
20260509091936 71 346 1.0 1.0 0.00 0.00 0.00 96 1011.1
20260509091432 71 16 2.0 2.0 0.00 0.00 0.00 96 1010.9
20260509090929 71 19 2.0 2.0 0.00 0.00 0.00 96 1010.9
20260509090426 71 346 1.0 1.0 0.00 0.00 0.00 96 1011.1
20260509085924 71 25 2.0 3.0 0.00 0.00 0.00 96 1011.0
20260509085421 71 58 4.0 6.0 0.00 0.00 0.00 96 1011.1
20260509084917 71 68 3.0 3.0 0.00 0.00 0.00 95 1011.3
20260509084414 71 7 1.0 2.0 0.00 0.00 0.00 95 1011.3
20260509083912 71 11 1.0 2.0 0.00 0.00 0.00 95 1011.2
20260509083409 71 353 0.0 0.0 0.00 0.00 0.00 95 1011.2
20260509082905 71 330 0.0 0.0 0.00 0.00 0.00 95 1011.6
20260509082402 71 325 0.0 0.0 0.00 0.00 0.00 95 1011.6
20260509081859 71 0 2.0 2.0 0.00 0.00 0.00 95 1011.7
20260509081356 71 358 1.0 1.0 0.00 0.00 0.00 95 1011.6
20260509080854 71 11 1.0 2.0 0.00 0.00 0.00 95 1011.6
20260509080352 71 327 0.0 0.0 0.00 0.00 0.00 95 1011.8
20260509075850 71 331 0.0 0.0 0.00 0.00 0.00 95 1011.6
20260509075346 71 73 3.0 3.0 0.00 0.00 0.00 95 1011.7
20260509074844 71 9 1.0 1.0 0.00 0.00 0.00 95 1011.7
20260509074342 71 328 0.0 0.0 0.00 0.00 0.00 95 1011.6
20260509073837 71 7 1.0 1.0 0.00 0.00 0.00 95 1011.4
20260509073334 71 343 0.0 0.0 0.00 0.00 0.00 95 1011.6
20260509072831 71 325 0.0 0.0 0.00 0.00 0.00 95 1011.7
20260509072327 71 325 0.0 0.0 0.00 0.00 0.00 95 1011.7
20260509071824 71 325 0.0 0.0 0.00 0.00 0.00 95 1011.8
20260509071321 71 352 0.0 0.0 0.00 0.00 0.00 95 1011.8
20260509070818 72 311 0.0 0.0 0.00 0.00 0.00 95 1012.3
20260509070315 72 311 0.0 0.0 0.00 0.00 0.00 95 1012.1
20260509065811 71 312 0.0 0.0 0.00 0.00 0.00 95 1012.2
20260509065307 72 312 0.0 0.0 0.00 0.00 0.00 95 1011.9
20260509064803 72 312 0.0 0.0 0.00 0.00 0.00 95 1011.9
20260509064301 71 317 0.0 0.0 0.00 0.00 0.00 95 1012.0
20260509063759 71 315 0.0 0.0 0.00 0.00 0.00 95 1011.8
20260509063254 71 306 0.0 0.0 0.00 0.00 0.00 95 1011.9
20260509062752 71 258 1.0 2.0 0.00 0.00 0.00 95 1011.9
20260509062249 71 302 0.0 0.0 0.00 0.00 0.00 95 1012.0
20260509061746 71 308 1.0 1.0 0.00 0.00 0.00 95 1011.8
20260509061244 71 303 1.0 1.0 0.00 0.00 0.00 95 1011.9
20260509060741 71 306 1.0 2.0 0.00 0.00 0.00 95 1011.4
20260509060237 71 176 4.0 5.0 0.00 0.00 0.00 95 1011.2
20260509055733 71 166 3.0 5.0 0.00 0.00 0.00 95 1011.4
20260509055229 71 218 6.0 7.0 0.00 0.00 0.00 95 1011.3
20260509054726 71 214 4.0 5.0 0.00 0.00 0.00 95 1011.3
20260509054223 71 227 4.0 6.0 0.00 0.00 0.00 95 1011.5
20260509053721 71 259 5.0 6.0 0.00 0.00 0.00 95 1011.3
20260509053218 71 254 3.0 5.0 0.00 0.00 0.00 95 1010.8
20260509052716 71 212 6.0 7.0 0.00 0.00 0.00 95 1010.5
20260509052213 71 187 3.0 3.0 0.00 0.00 0.00 94 1010.5
20260509051711 71 226 7.0 8.0 0.00 0.00 0.00 94 1010.3
20260509051208 71 215 3.0 5.0 0.00 0.00 0.00 94 1010.4
20260509050705 71 186 4.0 5.0 0.00 0.00 0.00 94 1010.3
20260509050201 71 254 3.0 3.0 0.00 0.00 0.00 94 1010.4
20260509045659 71 259 2.0 2.0 0.00 0.00 0.00 94 1010.4
20260509045156 71 274 1.0 2.0 0.00 0.00 0.00 93 1010.4
20260509044653 71 151 3.0 3.0 0.00 0.00 0.00 93 1010.4
20260509044150 71 222 2.0 2.0 0.00 0.00 0.00 93 1010.6
20260509043647 71 263 2.0 2.0 0.00 0.00 0.00 93 1010.5
20260509043142 71 220 3.0 3.0 0.00 0.00 0.00 93 1010.8
20260509042639 72 257 3.0 3.0 0.00 0.00 0.00 93 1010.7
20260509042135 72 204 4.0 5.0 0.00 0.00 0.00 93 1010.9
20260509041632 72 230 3.0 3.0 0.00 0.00 0.00 92 1011.0
20260509041129 72 217 3.0 3.0 0.00 0.00 0.00 92 1011.0
20260509040628 72 250 3.0 3.0 0.00 0.00 0.00 92 1011.1
20260509040124 72 238 3.0 3.0 0.00 0.00 0.00 92 1011.2
20260509035621 72 229 2.0 2.0 0.00 0.00 0.00 92 1011.1
20260509035118 72 243 2.0 2.0 0.00 0.00 0.00 92 1011.0
20260509034616 72 217 3.0 3.0 0.00 0.00 0.00 92 1011.2
20260509034113 72 254 3.0 3.0 0.00 0.00 0.00 92 1011.0
20260509033609 72 236 3.0 3.0 0.00 0.00 0.00 92 1010.8
20260509033106 72 235 5.0 6.0 0.00 0.00 0.00 91 1010.6
20260509032604 72 214 6.0 7.0 0.00 0.00 0.00 91 1010.7
20260509032100 72 199 6.0 7.0 0.00 0.00 0.00 91 1010.6
20260509031558 72 218 5.0 6.0 0.00 0.00 0.00 91 1010.6
20260509031055 73 205 5.0 5.0 0.00 0.00 0.00 90 1010.6
20260509030554 73 192 3.0 3.0 0.00 0.00 0.00 90 1010.7
20260509030050 73 224 4.0 5.0 0.00 0.00 0.00 90 1010.7
20260509025546 73 207 5.0 6.0 0.00 0.00 0.00 89 1010.5
20260509025042 73 262 3.0 7.0 0.00 0.00 0.00 89 1010.5
20260509024538 73 179 4.0 5.0 0.00 0.00 0.00 89 1010.6
20260509024034 73 202 3.0 5.0 0.00 0.00 0.00 89 1010.6
20260509023532 74 145 4.0 5.0 0.00 0.00 0.00 88 1010.5
20260509023029 74 192 2.0 5.0 0.00 0.00 0.00 88 1010.3
20260509022525 74 241 3.0 3.0 0.00 0.00 0.00 88 1010.3